,,,PA_Meas_PMT16A,,PR_Meas_QMR101_102,,RH_Meas_QMH101,,SR_Meas_QMS101,,TA_Meas_QMH101,,GenWind,,GenWind,
date,time,status,PA,status,PR,status,RH,status,SR,status,TA,status,DirAvg,status,SpdAvg,
2010-10-21, 00:00:04,VALID,1000.19,VALID,0,VALID,91.7614,VALID,0,VALID,23.9354,VALID,25,VALID,0.2875,
2010-10-21, 00:01:04,VALID,1000.17,VALID,0,VALID,91.7996,VALID,0,VALID,23.9354,VALID,25,VALID,0.233203,
2010-10-21, 00:02:04,VALID,1000.13,VALID,0,VALID,91.7843,VALID,0,VALID,23.8963,VALID,25,VALID,0.223438,
2010-10-21, 00:03:04,VALID,1000.12,VALID,0,VALID,91.8454,VALID,0,VALID,23.8768,VALID,25,VALID,0.395312,
2010-10-21, 00:04:04,VALID,1000.09,VALID,0,VALID,91.8911,VALID,0,VALID,23.8768,VALID,25,VALID,0.589063,
2010-10-21, 00:05:04,VALID,1000.05,VALID,0,VALID,91.8911,VALID,0,VALID,23.8963,VALID,25,VALID,0.801953,
2010-10-21, 00:06:04,VALID,1000.05,VALID,0,VALID,91.8835,VALID,0,VALID,23.9159,VALID,25,VALID,0.735156,
2010-10-21, 00:07:04,VALID,1000.07,VALID,0,VALID,91.8377,VALID,0,VALID,23.9549,VALID,25,VALID,0.633203,
2010-10-21, 00:08:04,VALID,1000.03,VALID,0,VALID,91.6775,VALID,0,VALID,23.9726,VALID,25,VALID,0.447656,
2010-10-21, 00:09:04,VALID,1000.04,VALID,0,VALID,91.5249,VALID,0,VALID,23.9531,VALID,25,VALID,0.285937,
2010-10-21, 00:10:04,VALID,1000,VALID,0,VALID,91.3494,VALID,0,VALID,23.9531,VALID,25,VALID,0.403906,
2010-10-21, 00:11:04,VALID,999.977,VALID,0,VALID,91.3266,VALID,0.112286,VALID,23.9317,VALID,25,VALID,0.375781,
2010-10-21, 00:12:04,VALID,999.941,VALID,0,VALID,91.3418,VALID,0,VALID,23.9531,VALID,25,VALID,0.305469,
2010-10-21, 00:13:04,VALID,999.93,VALID,0,VALID,91.3494,VALID,0.112286,VALID,23.9336,VALID,25,VALID,0.208984,
2010-10-21, 00:14:04,VALID,999.912,VALID,0,VALID,91.3494,VALID,0,VALID,23.914,VALID,25,VALID,0.138672,
2010-10-21, 00:15:04,VALID,999.919,VALID,0,VALID,91.3952,VALID,0.112286,VALID,23.914,VALID,25,VALID,0.125391,
2010-10-21, 00:16:04,VALID,999.887,VALID,0,VALID,91.4791,VALID,0,VALID,23.914,VALID,25,VALID,0.145313,
2010-10-21, 00:17:04,VALID,999.861,VALID,0,VALID,91.5554,VALID,0,VALID,23.9336,VALID,25,VALID,0.257031,
2010-10-21, 00:18:04,VALID,999.855,VALID,0,VALID,91.6394,VALID,0,VALID,23.9549,VALID,25,VALID,0.3375,
2010-10-21, 00:19:04,VALID,999.863,VALID,0,VALID,91.6775,VALID,0,VALID,23.9354,VALID,25,VALID,0.242188,
2010-10-21, 00:20:04,VALID,999.842,VALID,0,VALID,91.7004,VALID,0,VALID,23.9744,VALID,25,VALID,0.133203,
2010-10-21, 00:21:04,VALID,999.839,VALID,0,VALID,91.6851,VALID,0,VALID,23.9549,VALID,25,VALID,0.110547,
2010-10-21, 00:22:04,VALID,999.825,VALID,0,VALID,91.7157,VALID,0,VALID,23.9549,VALID,25,VALID,0,
2010-10-21, 00:23:04,VALID,999.793,VALID,0,VALID,91.6851,VALID,0,VALID,23.9531,VALID,25,VALID,0,
2010-10-21, 00:24:04,VALID,999.794,VALID,0,VALID,91.6317,VALID,0,VALID,23.9336,VALID,25,VALID,0,
2010-10-21, 00:25:04,VALID,999.765,VALID,0,VALID,91.6699,VALID,0,VALID,23.9336,VALID,25,VALID,0,
2010-10-21, 00:26:04,VALID,999.748,VALID,0,VALID,91.6928,VALID,0,VALID,23.914,VALID,25,VALID,0,
2010-10-21, 00:27:04,VALID,999.718,VALID,0,VALID,91.7157,VALID,0,VALID,23.914,VALID,25,VALID,0.241406,
2010-10-21, 00:28:04,VALID,999.72,VALID,0,VALID,91.7462,VALID,0,VALID,23.914,VALID,25,VALID,0.313672,
2010-10-21, 00:29:04,VALID,999.712,VALID,0,VALID,91.7614,VALID,0,VALID,23.875,VALID,55,VALID,0.675781,
2010-10-21, 00:30:04,VALID,999.679,VALID,0,VALID,91.8606,VALID,0,VALID,23.9336,VALID,103,VALID,0.760547,
2010-10-21, 00:31:04,VALID,999.669,VALID,0,VALID,91.9598,VALID,0,VALID,23.9531,VALID,103,VALID,0.479297,
2010-10-21, 00:32:04,VALID,999.634,VALID,0,VALID,92.0209,VALID,0,VALID,23.9549,VALID,103,VALID,0.557031,
2010-10-21, 00:33:04,VALID,999.616,VALID,0,VALID,92.0895,VALID,0,VALID,23.9744,VALID,103,VALID,0.596875,
2010-10-21, 00:34:04,VALID,999.588,VALID,0,VALID,92.0971,VALID,0,VALID,23.9744,VALID,103,VALID,0.491406,
2010-10-21, 00:35:04,VALID,999.581,VALID,0,VALID,92.1048,VALID,0,VALID,23.9336,VALID,103,VALID,0.527344,
2010-10-21, 00:36:04,VALID,999.564,VALID,0,VALID,92.0514,VALID,0,VALID,23.914,VALID,103,VALID,0.408203,
2010-10-21, 00:37:04,VALID,999.559,VALID,0,VALID,92.0437,VALID,0,VALID,23.914,VALID,103,VALID,0.514453,
2010-10-21, 00:38:04,VALID,999.553,VALID,0,VALID,92.0361,VALID,0,VALID,23.8982,VALID,103,VALID,0.494141,
2010-10-21, 00:39:04,VALID,999.539,VALID,0,VALID,92.0209,VALID,0,VALID,23.8982,VALID,103,VALID,0.726172,
2010-10-21, 00:40:04,VALID,999.544,VALID,0,VALID,92.059,VALID,0,VALID,23.8768,VALID,103,VALID,0.589844,
2010-10-21, 00:41:04,VALID,999.553,VALID,0,VALID,92.0514,VALID,0,VALID,23.8573,VALID,103,VALID,0.5375,
2010-10-21, 00:42:04,VALID,999.49,VALID,0,VALID,91.9903,VALID,0,VALID,23.8183,VALID,103,VALID,0.596094,
2010-10-21, 00:43:04,VALID,999.496,VALID,0,VALID,91.9293,VALID,0,VALID,23.7793,VALID,103,VALID,0.606641,
2010-10-21, 00:44:04,VALID,999.516,VALID,0,VALID,91.853,VALID,0,VALID,23.7616,VALID,103,VALID,0.623047,
2010-10-21, 00:45:04,VALID,999.551,VALID,0,VALID,91.8377,VALID,0,VALID,23.7012,VALID,71,VALID,0.682031,
2010-10-21, 00:46:04,VALID,999.525,VALID,0,VALID,91.853,VALID,0,VALID,23.6622,VALID,63,VALID,0.691406,
2010-10-21, 00:47:04,VALID,999.51,VALID,0,VALID,91.8835,VALID,0,VALID,23.6622,VALID,63,VALID,0.667969,
2010-10-21, 00:48:04,VALID,999.515,VALID,0,VALID,91.9064,VALID,0,VALID,23.6232,VALID,54,VALID,0.737891,
2010-10-21, 00:49:04,VALID,999.541,VALID,0,VALID,91.8911,VALID,0,VALID,23.6036,VALID,54,VALID,0.692969,
2010-10-21, 00:50:04,VALID,999.52,VALID,0,VALID,91.8072,VALID,0,VALID,23.5841,VALID,53,VALID,0.754297,
2010-10-21, 00:51:04,VALID,999.511,VALID,0,VALID,91.7691,VALID,0,VALID,23.5841,VALID,45,VALID,0.839453,
2010-10-21, 00:52:04,VALID,999.511,VALID,0,VALID,91.7385,VALID,0,VALID,23.5646,VALID,45,VALID,0.892578,
2010-10-21, 00:53:04,VALID,999.527,VALID,0,VALID,91.7233,VALID,0,VALID,23.5433,VALID,42,VALID,1.04453,
2010-10-21, 00:54:04,VALID,999.506,VALID,0,VALID,91.7767,VALID,0,VALID,23.5646,VALID,41,VALID,0.784375,
2010-10-21, 00:55:04,VALID,999.493,VALID,0,VALID,91.792,VALID,0.112286,VALID,23.5451,VALID,41,VALID,0.807813,
2010-10-21, 00:56:04,VALID,999.479,VALID,0,VALID,91.8835,VALID,0,VALID,23.5238,VALID,41,VALID,0.767578,
2010-10-21, 00:57:04,VALID,999.479,VALID,0,VALID,91.9903,VALID,0,VALID,23.5043,VALID,41,VALID,0.616797,
2010-10-21, 00:58:04,VALID,999.466,VALID,0,VALID,92.0819,VALID,0,VALID,23.5451,VALID,41,VALID,0.476172,
2010-10-21, 00:59:04,VALID,999.444,VALID,0,VALID,92.1887,VALID,0,VALID,23.5043,VALID,41,VALID,0.505469,
2010-10-21, 01:00:04,VALID,999.427,VALID,0,VALID,92.265,VALID,0,VALID,23.5238,VALID,41,VALID,0.550391,
2010-10-21, 01:01:04,VALID,999.426,VALID,0,VALID,92.3489,VALID,0,VALID,23.5433,VALID,41,VALID,0.675781,
2010-10-21, 01:02:04,VALID,999.422,VALID,0,VALID,92.4023,VALID,0,VALID,23.5433,VALID,41,VALID,0.544531,
2010-10-21, 01:03:04,VALID,999.389,VALID,0,VALID,92.4863,VALID,0.112286,VALID,23.5628,VALID,41,VALID,0.497266,
2010-10-21, 01:04:04,VALID,999.376,VALID,0,VALID,92.532,VALID,0,VALID,23.5628,VALID,43,VALID,0.862109,
2010-10-21, 01:05:04,VALID,999.355,VALID,0,VALID,92.5702,VALID,0,VALID,23.6036,VALID,44,VALID,1.01758,
2010-10-21, 01:06:04,VALID,999.353,VALID,0,VALID,92.5854,VALID,0,VALID,23.5823,VALID,44,VALID,0.984375,
2010-10-21, 01:07:04,VALID,999.35,VALID,0,VALID,92.5931,VALID,0,VALID,23.6019,VALID,44,VALID,1.02773,
2010-10-21, 01:08:04,VALID,999.369,VALID,0,VALID,92.5702,VALID,0,VALID,23.5841,VALID,44,VALID,0.95625,
2010-10-21, 01:09:04,VALID,999.366,VALID,0,VALID,92.5854,VALID,0,VALID,23.5841,VALID,44,VALID,1.00156,
2010-10-21, 01:10:04,VALID,999.353,VALID,0,VALID,92.5702,VALID,0,VALID,23.6054,VALID,44,VALID,0.721875,
2010-10-21, 01:11:04,VALID,999.36,VALID,0,VALID,92.532,VALID,0,VALID,23.5451,VALID,44,VALID,0.534375,
2010-10-21, 01:12:04,VALID,999.349,VALID,0,VALID,92.532,VALID,0,VALID,23.5451,VALID,44,VALID,0.775,
2010-10-21, 01:13:04,VALID,999.379,VALID,0,VALID,92.5091,VALID,0,VALID,23.5256,VALID,44,VALID,0.690234,
2010-10-21, 01:14:04,VALID,999.361,VALID,0,VALID,92.5091,VALID,0,VALID,23.4866,VALID,44,VALID,0.328125,
2010-10-21, 01:15:04,VALID,999.36,VALID,0,VALID,92.4786,VALID,0,VALID,23.4671,VALID,44,VALID,0.119141,
2010-10-21, 01:16:04,VALID,999.323,VALID,0,VALID,92.4634,VALID,0,VALID,23.4671,VALID,44,VALID,0.242969,
2010-10-21, 01:17:04,VALID,999.299,VALID,0,VALID,92.4634,VALID,0,VALID,23.4671,VALID,44,VALID,0.648438,
2010-10-21, 01:18:04,VALID,999.252,VALID,0,VALID,92.4405,VALID,0,VALID,23.428,VALID,44,VALID,0.965234,
2010-10-21, 01:19:04,VALID,999.264,VALID,0,VALID,92.4176,VALID,0,VALID,23.428,VALID,44,VALID,0.825,
2010-10-21, 01:20:04,VALID,999.206,VALID,0,VALID,92.41,VALID,0,VALID,23.4085,VALID,44,VALID,0.832031,
2010-10-21, 01:21:04,VALID,999.202,VALID,0,VALID,92.3871,VALID,0,VALID,23.4085,VALID,35,VALID,0.803516,
2010-10-21, 01:22:04,VALID,999.219,VALID,0,VALID,92.3794,VALID,0,VALID,23.4085,VALID,35,VALID,0.632031,
2010-10-21, 01:23:04,VALID,999.187,VALID,0,VALID,92.3871,VALID,0,VALID,23.389,VALID,35,VALID,0.745703,
2010-10-21, 01:24:04,VALID,999.199,VALID,0,VALID,92.3794,VALID,0,VALID,23.3872,VALID,35,VALID,0.810156,
2010-10-21, 01:25:04,VALID,999.148,VALID,0,VALID,92.3718,VALID,0,VALID,23.4085,VALID,35,VALID,0.759766,
2010-10-21, 01:26:04,VALID,999.203,VALID,0,VALID,92.3871,VALID,0,VALID,23.389,VALID,35,VALID,0.705859,
2010-10-21, 01:27:04,VALID,999.178,VALID,0,VALID,92.3947,VALID,0,VALID,23.389,VALID,35,VALID,0.494531,
2010-10-21, 01:28:04,VALID,999.186,VALID,0,VALID,92.3794,VALID,0,VALID,23.35,VALID,35,VALID,0.391406,
2010-10-21, 01:29:04,VALID,999.187,VALID,0,VALID,92.3718,VALID,0,VALID,23.35,VALID,35,VALID,0.391797,
2010-10-21, 01:30:04,VALID,999.164,VALID,0,VALID,92.3794,VALID,0,VALID,23.35,VALID,35,VALID,0.448438,
2010-10-21, 01:31:04,VALID,999.225,VALID,0,VALID,92.3794,VALID,0,VALID,23.3305,VALID,35,VALID,0.560156,
2010-10-21, 01:32:04,VALID,999.193,VALID,0,VALID,92.3794,VALID,0,VALID,23.311,VALID,35,VALID,0.732422,
2010-10-21, 01:33:04,VALID,999.156,VALID,0,VALID,92.3794,VALID,0,VALID,23.3305,VALID,22,VALID,0.986719,
2010-10-21, 01:34:04,VALID,999.166,VALID,0,VALID,92.3794,VALID,0,VALID,23.3305,VALID,18,VALID,0.834766,
2010-10-21, 01:35:04,VALID,999.139,VALID,0,VALID,92.3566,VALID,0,VALID,23.3305,VALID,18,VALID,0.908984,
2010-10-21, 01:36:04,VALID,999.094,VALID,0,VALID,92.3184,VALID,0,VALID,23.311,VALID,18,VALID,0.844531,
2010-10-21, 01:37:04,VALID,999.103,VALID,0,VALID,92.2574,VALID,0,VALID,23.3092,VALID,18,VALID,0.803125,
2010-10-21, 01:38:04,VALID,999.084,VALID,0,VALID,92.1811,VALID,0,VALID,23.3305,VALID,18,VALID,0.78125,
2010-10-21, 01:39:04,VALID,999.016,VALID,0,VALID,92.12,VALID,0,VALID,23.311,VALID,18,VALID,1.01211,
2010-10-21, 01:40:04,VALID,999.016,VALID,0,VALID,92.0514,VALID,0,VALID,23.311,VALID,18,VALID,0.976563,
2010-10-21, 01:41:04,VALID,999.032,VALID,0,VALID,92.0132,VALID,0,VALID,23.311,VALID,19,VALID,0.588672,
2010-10-21, 01:42:04,VALID,999.03,VALID,0,VALID,92.0285,VALID,0,VALID,23.311,VALID,19,VALID,0.469141,
2010-10-21, 01:43:04,VALID,999.005,VALID,0,VALID,92.1277,VALID,0,VALID,23.35,VALID,41,VALID,0.876172,
2010-10-21, 01:44:04,VALID,999.01,VALID,0,VALID,92.2268,VALID,0,VALID,23.3695,VALID,45,VALID,0.874219,
2010-10-21, 01:45:04,VALID,999.005,VALID,0,VALID,92.3184,VALID,0,VALID,23.4085,VALID,53,VALID,0.724219,
2010-10-21, 01:46:04,VALID,999.031,VALID,0,VALID,92.3642,VALID,0,VALID,23.4085,VALID,79,VALID,0.962891,
2010-10-21, 01:47:04,VALID,998.999,VALID,0,VALID,92.3794,VALID,0,VALID,23.4085,VALID,79,VALID,0.659766,
2010-10-21, 01:48:04,VALID,998.983,VALID,0,VALID,92.3871,VALID,0,VALID,23.428,VALID,79,VALID,0.621094,
2010-10-21, 01:49:04,VALID,998.957,VALID,0,VALID,92.3642,VALID,0,VALID,23.428,VALID,79,VALID,0.831641,
2010-10-21, 01:50:04,VALID,998.959,VALID,0,VALID,92.3566,VALID,0,VALID,23.428,VALID,79,VALID,0.942969,
2010-10-21, 01:51:04,VALID,998.98,VALID,0,VALID,92.3108,VALID,0,VALID,23.4475,VALID,79,VALID,0.970703,
2010-10-21, 01:52:04,VALID,998.944,VALID,0,VALID,92.3108,VALID,0,VALID,23.4493,VALID,79,VALID,0.899609,
2010-10-21, 01:53:04,VALID,998.937,VALID,0,VALID,92.2421,VALID,0,VALID,23.4475,VALID,79,VALID,0.699609,
2010-10-21, 01:54:04,VALID,998.911,VALID,0,VALID,92.1887,VALID,0,VALID,23.4475,VALID,79,VALID,0.715625,
2010-10-21, 01:55:04,VALID,998.941,VALID,0,VALID,92.1353,VALID,0,VALID,23.4475,VALID,79,VALID,0.581641,
2010-10-21, 01:56:04,VALID,998.937,VALID,0,VALID,92.0743,VALID,0,VALID,23.4475,VALID,79,VALID,0.676953,
2010-10-21, 01:57:04,VALID,998.902,VALID,0,VALID,92.0132,VALID,0,VALID,23.4458,VALID,79,VALID,0.705859,
2010-10-21, 01:58:04,VALID,998.925,VALID,0,VALID,91.9293,VALID,0,VALID,23.4671,VALID,79,VALID,0.718359,
2010-10-21, 01:59:04,VALID,998.919,VALID,0,VALID,91.8377,VALID,0,VALID,23.4866,VALID,79,VALID,0.609375,
2010-10-21, 02:00:04,VALID,998.914,VALID,0,VALID,91.708,VALID,0,VALID,23.4866,VALID,79,VALID,0.446484,
2010-10-21, 02:01:04,VALID,998.923,VALID,0,VALID,91.6012,VALID,0,VALID,23.4671,VALID,79,VALID,0.110547,
2010-10-21, 02:02:04,VALID,998.919,VALID,0,VALID,91.5326,VALID,0,VALID,23.4458,VALID,79,VALID,0,
2010-10-21, 02:03:04,VALID,998.938,VALID,0,VALID,91.4944,VALID,0,VALID,23.4475,VALID,79,VALID,0,
2010-10-21, 02:04:04,VALID,998.894,VALID,0,VALID,91.4791,VALID,0,VALID,23.4263,VALID,79,VALID,0.0113281,
2010-10-21, 02:05:04,VALID,998.852,VALID,0,VALID,91.5097,VALID,0,VALID,23.428,VALID,79,VALID,0.538672,
2010-10-21, 02:06:04,VALID,998.84,VALID,0,VALID,91.5097,VALID,0,VALID,23.428,VALID,79,VALID,0.579687,
2010-10-21, 02:07:04,VALID,998.845,VALID,0,VALID,91.4868,VALID,0,VALID,23.428,VALID,79,VALID,0.639063,
2010-10-21, 02:08:04,VALID,998.844,VALID,0,VALID,91.4028,VALID,0,VALID,23.428,VALID,79,VALID,0.945313,
2010-10-21, 02:09:04,VALID,998.857,VALID,0,VALID,91.3113,VALID,0,VALID,23.428,VALID,79,VALID,0.896484,
2010-10-21, 02:10:04,VALID,998.868,VALID,0,VALID,91.2884,VALID,0,VALID,23.428,VALID,79,VALID,0.874609,
2010-10-21, 02:11:04,VALID,998.905,VALID,0,VALID,91.235,VALID,0,VALID,23.428,VALID,79,VALID,0.809766,
2010-10-21, 02:12:04,VALID,998.93,VALID,0,VALID,91.1968,VALID,0,VALID,23.428,VALID,79,VALID,0.672656,
2010-10-21, 02:13:04,VALID,998.907,VALID,0,VALID,91.1053,VALID,0,VALID,23.428,VALID,79,VALID,0.443359,
2010-10-21, 02:14:04,VALID,998.907,VALID,0,VALID,91.0137,VALID,0,VALID,23.389,VALID,79,VALID,0.525391,
2010-10-21, 02:15:04,VALID,998.901,VALID,0,VALID,91.0443,VALID,0,VALID,23.3695,VALID,79,VALID,0.625781,
2010-10-21, 02:16:04,VALID,998.888,VALID,0,VALID,91.1816,VALID,0,VALID,23.3482,VALID,79,VALID,0.527344,
2010-10-21, 02:17:04,VALID,998.913,VALID,0,VALID,91.2197,VALID,0,VALID,23.35,VALID,79,VALID,0.492188,
2010-10-21, 02:18:04,VALID,998.904,VALID,0,VALID,91.2884,VALID,0,VALID,23.3695,VALID,79,VALID,0.249219,
2010-10-21, 02:19:04,VALID,998.915,VALID,0,VALID,91.2884,VALID,0,VALID,23.35,VALID,79,VALID,0.384375,
2010-10-21, 02:20:04,VALID,998.9,VALID,0,VALID,91.2655,VALID,0,VALID,23.35,VALID,79,VALID,0.461328,
2010-10-21, 02:21:04,VALID,998.939,VALID,0,VALID,91.2197,VALID,0,VALID,23.3305,VALID,79,VALID,0.537109,
2010-10-21, 02:22:04,VALID,998.885,VALID,0,VALID,91.1282,VALID,0,VALID,23.3305,VALID,79,VALID,0.505469,
2010-10-21, 02:23:04,VALID,998.894,VALID,0,VALID,91.09,VALID,0,VALID,23.3305,VALID,79,VALID,0.629297,
2010-10-21, 02:24:04,VALID,998.857,VALID,0,VALID,91.0824,VALID,0,VALID,23.3305,VALID,44,VALID,0.816016,
2010-10-21, 02:25:04,VALID,998.821,VALID,0,VALID,91.0137,VALID,0,VALID,23.3305,VALID,41,VALID,0.730859,
2010-10-21, 02:26:04,VALID,998.83,VALID,0,VALID,90.9374,VALID,0.112286,VALID,23.311,VALID,41,VALID,0.628125,
2010-10-21, 02:27:04,VALID,998.788,VALID,0,VALID,90.8993,VALID,0,VALID,23.311,VALID,41,VALID,0.420312,
2010-10-21, 02:28:04,VALID,998.752,VALID,0,VALID,90.9527,VALID,0,VALID,23.311,VALID,41,VALID,0.428906,
2010-10-21, 02:29:04,VALID,998.751,VALID,0,VALID,90.968,VALID,0,VALID,23.311,VALID,41,VALID,0.490234,
2010-10-21, 02:30:04,VALID,998.758,VALID,0,VALID,90.9985,VALID,0,VALID,23.2915,VALID,42,VALID,0.635938,
2010-10-21, 02:31:04,VALID,998.713,VALID,0,VALID,91.0366,VALID,0,VALID,23.311,VALID,42,VALID,0.623828,
2010-10-21, 02:32:04,VALID,998.707,VALID,0,VALID,91.029,VALID,0,VALID,23.35,VALID,42,VALID,0.608984,
2010-10-21, 02:33:04,VALID,998.683,VALID,0,VALID,90.9069,VALID,0,VALID,23.3695,VALID,42,VALID,0.605078,
2010-10-21, 02:34:04,VALID,998.65,VALID,0,VALID,90.7238,VALID,0,VALID,23.3872,VALID,70,VALID,0.675,
2010-10-21, 02:35:04,VALID,998.632,VALID,0,VALID,90.5788,VALID,0,VALID,23.4671,VALID,78,VALID,0.699609,
2010-10-21, 02:36:04,VALID,998.609,VALID,0,VALID,90.3957,VALID,0,VALID,23.4866,VALID,78,VALID,0.758984,
2010-10-21, 02:37:04,VALID,998.6,VALID,0,VALID,90.1897,VALID,0,VALID,23.5061,VALID,78,VALID,0.557813,
2010-10-21, 02:38:04,VALID,998.603,VALID,0,VALID,90.1287,VALID,0,VALID,23.5061,VALID,78,VALID,0.569531,
2010-10-21, 02:39:04,VALID,998.608,VALID,0,VALID,90.0677,VALID,0,VALID,23.4866,VALID,78,VALID,0.571875,
2010-10-21, 02:40:04,VALID,998.594,VALID,0,VALID,89.9914,VALID,0,VALID,23.4458,VALID,78,VALID,0.460547,
2010-10-21, 02:41:04,VALID,998.562,VALID,0,VALID,90.0295,VALID,0,VALID,23.428,VALID,37,VALID,0.878125,
2010-10-21, 02:42:04,VALID,998.56,VALID,0,VALID,90.2966,VALID,0,VALID,23.389,VALID,30,VALID,1.00703,
2010-10-21, 02:43:04,VALID,998.539,VALID,0,VALID,90.4339,VALID,0,VALID,23.35,VALID,15,VALID,1.01211,
2010-10-21, 02:44:04,VALID,998.533,VALID,0,VALID,90.6551,VALID,0.112286,VALID,23.3305,VALID,15,VALID,0.798437,
2010-10-21, 02:45:04,VALID,998.534,VALID,0,VALID,90.8154,VALID,0,VALID,23.2915,VALID,15,VALID,0.659766,
2010-10-21, 02:46:04,VALID,998.51,VALID,0,VALID,90.9222,VALID,0,VALID,23.2719,VALID,15,VALID,0.617969,
2010-10-21, 02:47:04,VALID,998.498,VALID,0,VALID,91.0595,VALID,0,VALID,23.2719,VALID,15,VALID,0.509375,
2010-10-21, 02:48:04,VALID,998.478,VALID,0,VALID,91.174,VALID,0,VALID,23.2702,VALID,15,VALID,0.321094,
2010-10-21, 02:49:04,VALID,998.441,VALID,0,VALID,91.1968,VALID,0,VALID,23.2719,VALID,15,VALID,0.213672,
2010-10-21, 02:50:04,VALID,998.44,VALID,0,VALID,91.2045,VALID,0,VALID,23.2117,VALID,15,VALID,0.496094,
2010-10-21, 02:51:04,VALID,998.423,VALID,0,VALID,91.2426,VALID,0,VALID,23.2329,VALID,15,VALID,0.507422,
2010-10-21, 02:52:04,VALID,998.429,VALID,0,VALID,91.1892,VALID,0,VALID,23.1939,VALID,15,VALID,0.414844,
2010-10-21, 02:53:04,VALID,998.435,VALID,0,VALID,91.1587,VALID,0,VALID,23.1744,VALID,15,VALID,0.335156,
2010-10-21, 02:54:04,VALID,998.442,VALID,0,VALID,91.2045,VALID,0,VALID,23.1549,VALID,15,VALID,0.0304688,
2010-10-21, 02:55:04,VALID,998.411,VALID,0,VALID,91.2121,VALID,0,VALID,23.1141,VALID,15,VALID,0,
2010-10-21, 02:56:04,VALID,998.393,VALID,0,VALID,91.3037,VALID,0,VALID,23.1354,VALID,15,VALID,0,
2010-10-21, 02:57:04,VALID,998.356,VALID,0,VALID,91.4257,VALID,0,VALID,23.1141,VALID,15,VALID,0.0347656,
2010-10-21, 02:58:04,VALID,998.327,VALID,0,VALID,91.5173,VALID,0,VALID,23.1141,VALID,15,VALID,0,
2010-10-21, 02:59:04,VALID,998.288,VALID,0,VALID,91.5783,VALID,0,VALID,23.1159,VALID,15,VALID,0,
2010-10-21, 03:00:04,VALID,998.277,VALID,0,VALID,91.6012,VALID,0,VALID,23.1159,VALID,15,VALID,0,
2010-10-21, 03:01:04,VALID,998.246,VALID,0,VALID,91.6012,VALID,0,VALID,23.0964,VALID,15,VALID,0,
2010-10-21, 03:02:04,VALID,998.211,VALID,0,VALID,91.6088,VALID,0,VALID,23.1159,VALID,15,VALID,0,
2010-10-21, 03:03:04,VALID,998.186,VALID,0,VALID,91.6546,VALID,0,VALID,23.0946,VALID,15,VALID,0,
2010-10-21, 03:04:04,VALID,998.179,VALID,0,VALID,91.6928,VALID,0,VALID,23.1141,VALID,15,VALID,0,
2010-10-21, 03:05:04,VALID,998.192,VALID,0,VALID,91.7385,VALID,0,VALID,23.1549,VALID,15,VALID,0.244531,
2010-10-21, 03:06:04,VALID,998.224,VALID,0,VALID,91.7614,VALID,0,VALID,23.1744,VALID,15,VALID,0.165234,
2010-10-21, 03:07:04,VALID,998.23,VALID,0,VALID,91.7691,VALID,0,VALID,23.1726,VALID,15,VALID,0.186719,
2010-10-21, 03:08:04,VALID,998.234,VALID,0,VALID,91.7385,VALID,0,VALID,23.1939,VALID,15,VALID,0.0382813,
2010-10-21, 03:09:04,VALID,998.229,VALID,0,VALID,91.7309,VALID,0,VALID,23.1939,VALID,15,VALID,0,
2010-10-21, 03:10:04,VALID,998.2,VALID,0,VALID,91.7385,VALID,0,VALID,23.1939,VALID,15,VALID,0,
2010-10-21, 03:11:04,VALID,998.226,VALID,0,VALID,91.7462,VALID,0,VALID,23.1744,VALID,15,VALID,0,
2010-10-21, 03:12:04,VALID,998.216,VALID,0,VALID,91.7309,VALID,0,VALID,23.1939,VALID,15,VALID,0.252734,
2010-10-21, 03:13:04,VALID,998.237,VALID,0,VALID,91.6928,VALID,0,VALID,23.1744,VALID,15,VALID,0.344141,
2010-10-21, 03:14:04,VALID,998.272,VALID,0,VALID,91.6241,VALID,0,VALID,23.1921,VALID,15,VALID,0.410156,
2010-10-21, 03:15:04,VALID,998.286,VALID,0,VALID,91.502,VALID,0,VALID,23.2134,VALID,15,VALID,0.521094,
2010-10-21, 03:16:04,VALID,998.313,VALID,0,VALID,91.3876,VALID,0,VALID,23.2329,VALID,15,VALID,0.385938,
2010-10-21, 03:17:04,VALID,998.36,VALID,0,VALID,91.2655,VALID,0,VALID,23.2117,VALID,15,VALID,0.26875,
2010-10-21, 03:18:04,VALID,998.367,VALID,0,VALID,91.1206,VALID,0,VALID,23.2524,VALID,15,VALID,0.149609,
2010-10-21, 03:19:04,VALID,998.406,VALID,0,VALID,91.0519,VALID,0,VALID,23.2719,VALID,15,VALID,0,
2010-10-21, 03:20:04,VALID,998.39,VALID,0,VALID,90.9374,VALID,0,VALID,23.2719,VALID,15,VALID,0.321484,
2010-10-21, 03:21:04,VALID,998.409,VALID,0,VALID,90.9451,VALID,0,VALID,23.2524,VALID,15,VALID,0.342969,
2010-10-21, 03:22:04,VALID,998.431,VALID,0,VALID,90.9451,VALID,0,VALID,23.2524,VALID,15,VALID,0.232031,
2010-10-21, 03:23:04,VALID,998.464,VALID,0,VALID,91.0443,VALID,0,VALID,23.2524,VALID,15,VALID,0.310547,
2010-10-21, 03:24:04,VALID,998.457,VALID,0,VALID,91.0824,VALID,0,VALID,23.2524,VALID,15,VALID,0.319922,
2010-10-21, 03:25:04,VALID,998.475,VALID,0,VALID,91.1511,VALID,0,VALID,23.2329,VALID,15,VALID,0.625781,
2010-10-21, 03:26:04,VALID,998.459,VALID,0,VALID,91.1282,VALID,0,VALID,23.2915,VALID,106,VALID,0.829297,
2010-10-21, 03:27:04,VALID,998.482,VALID,0,VALID,90.9527,VALID,0,VALID,23.3287,VALID,105,VALID,0.825,
2010-10-21, 03:28:04,VALID,998.497,VALID,0,VALID,90.5788,VALID,0,VALID,23.4671,VALID,105,VALID,0.869922,
2010-10-21, 03:29:04,VALID,998.5,VALID,0,VALID,90.0295,VALID,0,VALID,23.5646,VALID,105,VALID,0.810938,
2010-10-21, 03:30:04,VALID,998.518,VALID,0,VALID,89.4649,VALID,0,VALID,23.6427,VALID,105,VALID,0.733594,
2010-10-21, 03:31:04,VALID,998.498,VALID,0,VALID,89.0987,VALID,0,VALID,23.7207,VALID,106,VALID,0.840625,
2010-10-21, 03:32:04,VALID,998.52,VALID,0,VALID,88.6791,VALID,0,VALID,23.7988,VALID,106,VALID,0.757422,
2010-10-21, 03:33:04,VALID,998.505,VALID,0,VALID,88.351,VALID,0,VALID,23.8378,VALID,107,VALID,0.855859,
2010-10-21, 03:34:04,VALID,998.512,VALID,0,VALID,88.0687,VALID,0,VALID,23.8768,VALID,115,VALID,0.788672,
2010-10-21, 03:35:04,VALID,998.536,VALID,0,VALID,87.9466,VALID,0,VALID,23.9159,VALID,115,VALID,0.878906,
2010-10-21, 03:36:04,VALID,998.536,VALID,0,VALID,87.8246,VALID,0,VALID,23.9354,VALID,115,VALID,0.776563,
2010-10-21, 03:37:04,VALID,998.552,VALID,0,VALID,87.7711,VALID,0,VALID,23.9354,VALID,115,VALID,0.712891,
2010-10-21, 03:38:04,VALID,998.556,VALID,0,VALID,87.8322,VALID,0,VALID,23.9354,VALID,115,VALID,0.553516,
2010-10-21, 03:39:04,VALID,998.601,VALID,0,VALID,87.9314,VALID,0,VALID,23.9159,VALID,115,VALID,0.560156,
2010-10-21, 03:40:04,VALID,998.581,VALID,0,VALID,88.0382,VALID,0,VALID,23.9159,VALID,115,VALID,0.532812,
2010-10-21, 03:41:04,VALID,998.593,VALID,0,VALID,88.1755,VALID,0,VALID,23.9159,VALID,115,VALID,0.576172,
2010-10-21, 03:42:04,VALID,998.617,VALID,0,VALID,88.2747,VALID,0,VALID,23.8963,VALID,115,VALID,0.685938,
2010-10-21, 03:43:04,VALID,998.585,VALID,0,VALID,88.2137,VALID,0,VALID,23.914,VALID,115,VALID,0.789844,
2010-10-21, 03:44:04,VALID,998.578,VALID,0,VALID,88.0763,VALID,0,VALID,23.9744,VALID,115,VALID,0.866797,
2010-10-21, 03:45:04,VALID,998.576,VALID,0,VALID,87.8398,VALID,0,VALID,24.0329,VALID,109,VALID,0.867578,
2010-10-21, 03:46:04,VALID,998.551,VALID,0,VALID,87.588,VALID,0,VALID,24.072,VALID,109,VALID,0.925391,
2010-10-21, 03:47:04,VALID,998.554,VALID,0,VALID,87.466,VALID,0,VALID,24.072,VALID,109,VALID,0.841797,